Location: Unspecified
(0.0000°N, 0.0000°E)
Time: 12:42:55
(UTC+00:00)

COSMOS 2508 - Pass Details

Date: 04 October 2020
Orbit: 1484 x 1504 km, 82.5° (Epoch: 26 October)

Event Time Altitude Azimuth Distance (km) Brightness Sun altitude
Rises 18:26:29 0° 182° (S) 4,624 ? -9.5°
Reaches altitude 10° 18:29:22 10° 181° (S) 3,645 ? -10.2°
Maximum altitude 18:38:10 83° 93° (E) 1,511 ? -12.4°
Drops below altitude 10° 18:46:57 10° 6° (N) 3,647 ? -14.6°
Sets 18:49:50 0° 5° (N) 4,627 ? -15.3°
